Regional Weather Roundup
Issued by NWS

Home | Current Version | Previous Version | Graphics & Text | Print | Product List | Glossary On
Versions: 1 2 3 4 5 6 7 8 9 10 11 12 13 14 15 16 17 18 19 20 21 22 23 24 25 26 27 28 29 30 31 32 33 34 35 36 37 38 39 40 41 42 43 44 45 46 47 48 49 50
000
ASUS45 KABQ 171001
RWRNM
NEW MEXICO REGIONAL WEATHER ROUNDUP
NATIONAL WEATHER SERVICE ALBUQUERQUE NM
400 AM MDT THU AUG 17 2017

NOTE: "FAIR" MEANS FEW OR NO CLOUDS BELOW 12,000 FEET AGL WITH NO
       SIGNIFICANT WEATHER OR OBSTRUCTIONS TO VISION.

      THIS PRODUCT IS RELEASED AS TWO VERSIONS.  ONE VERSION NEAR
      THE TOP OF THE HOUR CONTAINING PRELIMINARY DATA FROM ALBUQUERQUE
      AND OTHER STATIONS.  A FINAL VERSION WITH ADDITIONAL DATA IS
      ISSUED ABOUT 10 MINUTES AFTER THE HOUR.

NMZ501-503-504-510>518-171100-
NORTHWEST PLATEAU/NORTHCENTRAL MOUNTAINS

CITY           SKY/WX    TMP DP  RH WIND       PRES   REMARKS
FARMINGTON     FAIR      53  29  39 E9        30.17R
SANTA FE       CLOUDY    58  39  49 CALM      30.23S
TAOS           FAIR      50  37  61 NE9       30.32R
ANGEL FIRE     CLOUDY    46  41  85 CALM      30.41S

$$
NMZ402-403-502-505>509-171100-
WESTCENTRAL MOUNTAINS/SOUTHWEST MOUNTAINS

CITY           SKY/WX    TMP DP  RH WIND       PRES   REMARKS
GALLUP         FAIR      51  36  56 NE5       30.27S
GRANTS         FAIR      48  29  46 CALM      30.29S
SILVER CITY    FAIR      56  41  57 N8        30.19S

$$
NMZ407-409-411-412-171100-
SOUTHERN DESERTS

CITY           SKY/WX    TMP DP  RH WIND       PRES   REMARKS
DEMING         FAIR      62  44  51 SW7       30.11F
LAS CRUCES     FAIR      66  35  31 NE5       30.12R
HOLLOMAN AFB   FAIR      67  49  53 E5        30.09F
ALAMOGORDO     FAIR      66  46  48 CALM      30.10S
T OR C         FAIR      70  40  33 CALM      30.12S

$$
NMZ519>523-171100-
CENTRAL VALLEYS/CENTRAL HIGHLANDS

CITY           SKY/WX    TMP DP  RH WIND       PRES   REMARKS
ALBUQUERQUE    MOCLDY    68  42  38 E7        30.17S
CLINES CORNERS CLOUDY    60  42  51 SE6       30.29S
BELEN          NOT AVBL
SOCORRO        FAIR      64  44  49 CALM      30.14R

$$
NMZ524>526-539-540-171100-
SOUTHCENTRAL MOUNTAINS

CITY           SKY/WX    TMP DP  RH WIND       PRES   REMARKS
RUIDOSO        FAIR      61  41  48 W6        30.29S

$$
NMZ527>531-171100-
NORTHEAST HIGHLANDS/NORTHEAST PLAINS

CITY           SKY/WX    TMP DP  RH WIND       PRES   REMARKS
LAS VEGAS      CLOUDY    56  46  69 NE6       30.30F
RATON          FAIR      52  50  93 NE7       30.27S
CLAYTON        FAIR      58  55  90 N3        30.20R

$$
NMZ532>537-171100-
EASTCENTRAL PLAINS

CITY           SKY/WX    TMP DP  RH WIND       PRES   REMARKS
SANTA ROSA     FAIR      62  55  77 CALM      30.16R
TUCUMCARI      FAIR      64  58  80 CALM      30.11R
CANNON AFB     FAIR      64  64 100 E7        30.14S
CLOVIS AIRPORT FAIR      63  60  90 E6        30.14S

$$
NMZ028-029-538-171100-
SOUTHEAST PLAINS

CITY           SKY/WX    TMP DP  RH WIND       PRES   REMARKS
ROSWELL        FAIR      68  55  63 SW7       30.06S
ARTESIA        FAIR      68  55  64 W5        30.06S
CARLSBAD       FAIR      68  64  87 S3        30.02F
HOBBS          FAIR      68  64  88 SE6       30.07S


$$




USA.gov is the U.S. government's official web portal to all federal, state and local government web resources and services.